Tracking 29495 objects as of 7-Sep-2024
HD Live streaming from Space Station
objects crossing your sky now

MINOTAUR 4 R/B

Track MINOTAUR 4 R/B now!
10-day predictions


NORAD ID: 37228
Int'l Code: 2010-062G
Perigee: 618.5 km
Apogee: 642.7 km
Inclination: 72.0 °
Period: 97.2 minutes
Semi major axis: 7001 km
RCS: Unknown
Launch date: November 20, 2010
Source: United States (US)
Launch site: Kodiak Island, Alaska (KODAK)

Note: This is a ROCKET BODY
Your satellite tracking list
Your tracking list is empty




NASA's NSSDC Master Catalog

Two Line Element Set (TLE):
1 37228U 10062G   24249.87108130 0.00003500  00000-0  44073-3 0    02
2 37228  71.9698 155.5158 0017305 253.5092 106.4908 14.81869869    04
Source of the keplerian elements: McCants